{"data":{"norad_id":36596,"intl_designator":"2010-027A","name":"SJ-12","alt_names":[],"object_type":"PAYLOAD","status":"ACTIVE","operator":null,"country":"PRC","launch_date":"2010-06-15","launch_site_code":"JSC","launch_vehicle":null,"mission":null,"orbit_class":"UNKNOWN","rcs_meters":3.26,"size_class":null,"mass_kg":null,"dimensions":null,"purposes":[],"wikipedia_slug":null,"has_3d_model":false,"image_url":null,"decayed_at":null,"tle_current":{"epoch":"2026-05-25T02:23:17.141280Z","epoch_age_seconds":73203,"freshness":"FRESH","line1":"1 36596U 10027A   26145.09950395  .00004048  00000+0  21146-3 0  9999","line2":"2 36596  97.7630 162.2480 0007082 162.0605 198.0879 15.16476366871365","mean_motion":15.16476366,"eccentricity":0.0007082,"inclination_deg":97.763,"raan_deg":162.248,"arg_perigee_deg":162.0605,"mean_anomaly_deg":198.0879,"bstar":0.00021146,"rev_number":87136,"period_min":94.956969477756,"perigee_km":511.61729390638,"apogee_km":521.38285786067,"semimajor_km":6894.6370758835,"source":"CELESTRAK","updated_at":"2026-05-25T13:37:55.197923Z"}}}